Tracking 17147 objects as of 4-July-2015
HD Live streaming from Space Station

GORIZONT 30

Track GORIZONT 30 now!
GORIZONT 30 is classified as:


NORAD ID: 23108
Int'l Code: 1994-030A
Perigee: 35,771.9 km
Apogee: 35,819.6 km
Inclination: 14.2 °
Period: 1,436.2 minutes
Semi major axis: 42166 km
RCS: 12.5892 m2 (large)
Launch date: May 20, 1994
Source: Commonwealth of Independent States (former USSR) (CIS)
Your satellite tracking list
Your tracking list is empty





NASA's NSSDC Master Catalog

Two Line Element Set (TLE):
1 23108U 94030A   15184.76534591 -.00000142  00000-0  00000+0 0  9996
2 23108 014.1996 024.3158 0005657 156.1504 002.2094 01.00264545 77361

Source of the keplerian elements: AFSPC

N2YO: 431